Location: Unspecified
(51.5147°N, 7.4673°E)
Time: 19:24:26
(UTC+01:00)

A-11 Canister half - Pass Details

Date: 20 February 2026
Orbit: 1512 x 1687 km, 47.2° (Epoch: 8 March)

Event Time Altitude Azimuth Distance (km) Brightness Sun altitude
Rises 18:39:47 0° 181° (S) 4,926 11.8 -7.8°
Reaches altitude 10° 18:44:29 10° 163° (SSE) 3,944 11.0 -8.5°
Maximum altitude 18:50:15 17° 127° (SE) 3,407 10.4 -9.4°
Enters shadow 18:55:22 11° 95° (E) 3,828 10.4 -10.2°
Drops below altitude 10° 18:55:59 10° 92° (E) 3,928 - -10.3°
Sets 19:00:35 0° 74° (ENE) 4,897 - -11.0°
